Weather History for Claxton, GA

Change the Weather History Date:

Tuesday, November 20, 2012

  Actual Average (KSAV) Record (KSAV)
Temperature  
Mean Temperature 56 °F 58 °F  
Max Temperature 71 °F 69 °F 83 °F (1942)
Min Temperature 42 °F 47 °F 24 °F (1914)
Degree Days  
Heating Degree Days 8 8  
Month to date heating degree days 117  
Since 1 July heating degree days 174  
Cooling Degree Days 0 1  
Month to date cooling degree days 30  
Year to date cooling degree days 2442  
Growing Degree Days 6 (Base 50)    
Moisture  
Dew Point 50 °F    
Average Humidity 80    
Maximum Humidity 100    
Minimum Humidity 50    
Precipitation  
Precipitation 0.00 in 0.08 in 1.90 in (1894)
Month to date precipitation 1.58  
Year to date precipitation 44.22  
Sea Level Pressure  
Sea Level Pressure 30.10 in    
Wind  
Wind Speed 2 mph (North)    
Max Wind Speed 12 mph    
Max Gust Speed 16 mph    
Visibility 9 miles    
Events      
T = Trace of Precipitation, MM = Missing Value Source: NWS Daily Summary

Daily Weather History Graph

Daily Weather History Graph

Search for Another Location

Airport:

Trip Planner

Search our weather history database for the weather conditions in past years. The results will help you decide how hot, cold, wet, or windy it might be!

Date:

Astronomy

Nov. 20, 2012 Rise Set
Actual Time 7:01 AM EST 5:24 PM EST
Civil Twilight 6:35 AM EST 5:51 PM EST
Nautical Twilight 6:05 AM EST 6:20 PM EST
Astronomical Twilight 5:36 AM EST 6:50 PM EST
Moon 12:47 PM EST (11/20) No Moon Set
Length of Visible Light 11h 15m
Length of Day
10h 23m
Waxing Crescent, 51% of the Moon is Illuminated
Nov 20
Waxing Crescent
Nov 28
Full
Dec 6
Last Quarter
Dec 13
New
Dec 20
First Quarter

Hourly Weather History & Observations

Time (EST) Temp. Dew Point Humidity Pressure Visibility Wind Dir Wind Speed Gust Speed Precip Events Conditions
12:15 AM 50.0 °F 50.0 °F 100% 30.15 in 7.0 mi Calm Calm - N/A   Clear
12:35 AM 50.0 °F 50.0 °F 100% 30.15 in 7.0 mi Calm Calm - N/A   Clear
12:55 AM 50.0 °F 50.0 °F 100% 30.14 in 7.0 mi Calm Calm - N/A   Clear
1:15 AM 48.2 °F 48.2 °F 100% 30.13 in 7.0 mi Calm Calm - N/A   Clear
1:35 AM 48.2 °F 48.2 °F 100% 30.13 in 7.0 mi Calm Calm - N/A   Clear
1:55 AM 46.4 °F 46.4 °F 100% 30.13 in 7.0 mi Calm Calm - N/A   Clear
2:15 AM 46.4 °F 46.4 °F 100% 30.13 in 7.0 mi Calm Calm - N/A   Clear
2:55 AM 46.4 °F 46.4 °F 100% 30.13 in 5.0 mi Calm Calm - N/A   Clear
3:15 AM 44.6 °F 44.6 °F 100% 30.12 in 10.0 mi Calm Calm - N/A   Clear
6:55 AM 42.8 °F 42.8 °F 100% 30.14 in 5.0 mi Calm Calm - N/A   Clear
7:15 AM 42.8 °F 42.8 °F 100% 30.15 in 5.0 mi Calm Calm - N/A   Clear
7:55 AM 44.6 °F 44.6 °F 100% 30.17 in 7.0 mi Calm Calm - N/A   Clear
8:15 AM 46.4 °F 46.4 °F 100% 30.17 in 10.0 mi Calm Calm - N/A   Clear
8:35 AM 51.8 °F 50.0 °F 94% 30.17 in 10.0 mi Calm Calm - N/A   Clear
8:55 AM 53.6 °F 50.0 °F 88% 30.17 in 10.0 mi NE 5.8 mph - N/A   Clear
9:15 AM 55.4 °F 50.0 °F 82% 30.17 in 10.0 mi NNE 4.6 mph - N/A   Clear
9:35 AM 57.2 °F 50.0 °F 77% 30.17 in 10.0 mi NNE 3.5 mph - N/A   Clear
9:55 AM 59.0 °F 50.0 °F 72% 30.17 in 10.0 mi North 5.8 mph - N/A   Clear
10:15 AM 60.8 °F 50.0 °F 68% 30.18 in 10.0 mi North 5.8 mph - N/A   Clear
10:35 AM 62.6 °F 50.0 °F 63% 30.16 in 10.0 mi NE 6.9 mph - N/A   Clear
10:55 AM 64.4 °F 50.0 °F 59% 30.16 in 10.0 mi NNE 6.9 mph - N/A   Clear
11:15 AM 64.4 °F 50.0 °F 59% 30.15 in 10.0 mi NE 6.9 mph - N/A   Clear
11:35 AM 66.2 °F 50.0 °F 56% 30.14 in 10.0 mi North 8.1 mph - N/A   Clear
11:55 AM 68.0 °F 50.0 °F 52% 30.13 in 10.0 mi NNE 4.6 mph - N/A   Clear
12:15 PM 68.0 °F 50.0 °F 52% 30.11 in 10.0 mi NE 5.8 mph - N/A   Clear
12:55 PM 68.0 °F 50.0 °F 52% 30.09 in 10.0 mi North 4.6 mph 16.1 mph N/A   Clear
1:15 PM 69.8 °F 51.8 °F 53% 30.08 in 10.0 mi NNW 8.1 mph - N/A   Clear
1:35 PM 69.8 °F 51.8 °F 53% 30.08 in 10.0 mi North 11.5 mph - N/A   Clear
1:55 PM 69.8 °F 51.8 °F 53% 30.06 in 10.0 mi NW 11.5 mph - N/A   Clear
2:15 PM 71.6 °F 51.8 °F 50% 30.06 in 10.0 mi NW 10.4 mph - N/A   Clear
2:35 PM 69.8 °F 51.8 °F 53% 30.06 in 10.0 mi NNW 5.8 mph - N/A   Clear
2:55 PM 69.8 °F 51.8 °F 53% 30.05 in 10.0 mi NNW 8.1 mph - N/A   Clear
3:15 PM 69.8 °F 51.8 °F 53% 30.05 in 10.0 mi North 4.6 mph - N/A   Clear
3:35 PM 69.8 °F 51.8 °F 53% 30.05 in 10.0 mi NW 5.8 mph - N/A   Clear
3:55 PM 69.8 °F 51.8 °F 53% 30.05 in 10.0 mi NW 9.2 mph - N/A   Clear
4:15 PM 69.8 °F 51.8 °F 53% 30.05 in 10.0 mi North 5.8 mph - N/A   Clear
4:35 PM 68.0 °F 51.8 °F 56% 30.05 in 10.0 mi NNW 5.8 mph - N/A   Clear
4:55 PM 66.2 °F 51.8 °F 60% 30.05 in 10.0 mi Calm Calm - N/A   Clear
5:15 PM 62.6 °F 51.8 °F 68% 30.05 in 10.0 mi Calm Calm - N/A   Clear
5:35 PM 60.8 °F 53.6 °F 77% 30.05 in 10.0 mi Calm Calm - N/A   Clear
5:55 PM 59.0 °F 53.6 °F 82% 30.06 in 10.0 mi Calm Calm - N/A   Clear
6:15 PM 59.0 °F 51.8 °F 77% 30.06 in 10.0 mi Calm Calm - N/A   Clear
6:35 PM 57.2 °F 51.8 °F 82% 30.07 in 10.0 mi Calm Calm - N/A   Clear
6:55 PM 55.4 °F 51.8 °F 88% 30.08 in 10.0 mi Calm Calm - N/A   Scattered Clouds
7:15 PM 55.4 °F 51.8 °F 88% 30.08 in 10.0 mi Calm Calm - N/A   Scattered Clouds
7:35 PM 53.6 °F 51.8 °F 94% 30.08 in 10.0 mi Calm Calm - N/A   Clear
7:55 PM 53.6 °F 51.8 °F 94% 30.08 in 10.0 mi Calm Calm - N/A   Clear
8:15 PM 51.8 °F 51.8 °F 100% 30.08 in 10.0 mi Calm Calm - N/A   Clear
8:35 PM 51.8 °F 51.8 °F 100% 30.08 in 10.0 mi Calm Calm - N/A   Clear
8:55 PM 51.8 °F 51.8 °F 100% 30.08 in 10.0 mi Calm Calm - N/A   Clear
9:15 PM 50.0 °F 50.0 °F 100% 30.09 in 10.0 mi Calm Calm - N/A   Clear
9:55 PM 48.2 °F 48.2 °F 100% 30.09 in 10.0 mi Calm Calm - N/A   Clear
10:15 PM 46.4 °F 46.4 °F 100% 30.09 in 10.0 mi Calm Calm - N/A   Clear
10:35 PM 46.4 °F 46.4 °F 100% 30.09 in 10.0 mi Calm Calm - N/A   Clear
10:55 PM 46.4 °F 46.4 °F 100% 30.09 in 7.0 mi Calm Calm - N/A   Clear
11:15 PM 46.4 °F 46.4 °F 100% 30.09 in 10.0 mi Calm Calm - N/A   Clear
11:35 PM 44.6 °F 44.6 °F 100% 30.09 in 7.0 mi Calm Calm - N/A   Clear
11:55 PM 44.6 °F 44.6 °F 100% 30.09 in 7.0 mi Calm Calm - N/A   Clear